When you browse on this site, cookies collect data to enhance your experience and personalize the content and advertising you see.
Visit our Privacy Policy to learn more. By continuing to use the site, you agree to this use of cookies and data.
  • En España
  • Lista de países
  • Para 7 días
  • Temperatura del agua
  • El tiempo en el mapa
  • Informadores
  • user-avatar
    Iniciar sesión

    Tiempo cada hora Logroño

    Hoy, 26 Enero, Domingo

    Tiempo Temperatura Precipitaciones Viento Presión Humedad
    00:00 +6°C° 0.2 mm 0 mps 726 mmHg 96%
    01:00 +6°C° 0.1 mm 0 mps 726 mmHg 95%
    02:00 +6°C° 0.1 mm 0 mps 726 mmHg 95%
    03:00 +6°C° 0.1 mm 0 mps 726 mmHg 95%
    04:00 +6°C° 0 mm 0 mps 726 mmHg 94%
    05:00 +7°C° 0 mm 1 mps 727 mmHg 94%
    06:00 +7°C° 0 mm 1 mps 727 mmHg 93%
    07:00 +7°C° 0 mm 1 mps 728 mmHg 91%
    08:00 +7°C° 0 mm 1 mps 728 mmHg 88%
    09:00 +8°C° 0 mm 1 mps 729 mmHg 86%
    10:00 +8°C° 0 mm 2 mps 729 mmHg 78%
    11:00 +9°C° 0 mm 2 mps 729 mmHg 70%
    12:00 +11°C° 0 mm 3 mps 729 mmHg 62%
    13:00 +11°C° 0 mm 3 mps 729 mmHg 61%
    14:00 +11°C° 0 mm 3 mps 728 mmHg 60%
    15:00 +11°C° 0 mm 3 mps 728 mmHg 59%
    16:00 +10°C° 0 mm 2 mps 728 mmHg 65%
    17:00 +8°C° 0 mm 2 mps 728 mmHg 71%
    18:00 +8°C° 0 mm 1 mps 728 mmHg 77%
    19:00 +8°C° 0 mm 1 mps 728 mmHg 77%
    20:00 +7°C° 0 mm 1 mps 728 mmHg 77%
    21:00 +7°C° 0 mm 1 mps 729 mmHg 77%
    22:00 +7°C° 0 mm 1 mps 729 mmHg 78%
    23:00 +6°C° 0 mm 2 mps 729 mmHg 78%

    Mañana, 27 Enero, Lunes

    Tiempo Temperatura Precipitaciones Viento Presión Humedad
    00:00 +5°C° 0 mm 2 mps 729 mmHg 79%
    01:00 +6°C° 0 mm 1 mps 728 mmHg 79%
    02:00 +6°C° 0 mm 1 mps 728 mmHg 80%
    03:00 +7°C° 0 mm 1 mps 728 mmHg 80%
    04:00 +6°C° 0 mm 1 mps 728 mmHg 81%
    05:00 +6°C° 0 mm 1 mps 727 mmHg 83%
    06:00 +6°C° 0 mm 1 mps 727 mmHg 84%
    07:00 +6°C° 0 mm 2 mps 727 mmHg 82%
    08:00 +6°C° 0 mm 2 mps 727 mmHg 81%
    09:00 +7°C° 0 mm 2 mps 727 mmHg 79%
    10:00 +8°C° 0 mm 2 mps 727 mmHg 77%
    11:00 +8°C° 0 mm 3 mps 726 mmHg 75%
    12:00 +9°C° 0 mm 3 mps 726 mmHg 73%
    13:00 +9°C° 0.1 mm 3 mps 725 mmHg 75%
    14:00 +9°C° 0.1 mm 2 mps 725 mmHg 76%
    15:00 +10°C° 0.1 mm 2 mps 724 mmHg 78%
    16:00 +9°C° 0.1 mm 2 mps 724 mmHg 80%
    17:00 +9°C° 0.1 mm 2 mps 724 mmHg 81%
    18:00 +9°C° 0.1 mm 2 mps 724 mmHg 83%
    19:00 +9°C° 0 mm 2 mps 724 mmHg 83%
    20:00 +9°C° 0 mm 3 mps 724 mmHg 84%
    21:00 +8°C° 0 mm 3 mps 725 mmHg 84%
    22:00 +8°C° 0 mm 3 mps 725 mmHg 84%
    23:00 +8°C° 0 mm 3 mps 725 mmHg 83%

    Pasado mañana, 28 Enero, Martes

    Tiempo Temperatura Precipitaciones Viento Presión Humedad
    00:00 +8°C° 0 mm 3 mps 725 mmHg 83%
    01:00 +8°C° 0 mm 3 mps 725 mmHg 84%
    02:00 +8°C° 0 mm 3 mps 725 mmHg 84%
    03:00 +8°C° 0 mm 3 mps 725 mmHg 85%
    04:00 +7°C° 0 mm 3 mps 725 mmHg 86%
    05:00 +7°C° 0 mm 3 mps 725 mmHg 86%
    06:00 +7°C° 0 mm 2 mps 726 mmHg 87%
    07:00 +7°C° 0 mm 2 mps 726 mmHg 86%
    08:00 +8°C° 0 mm 1 mps 727 mmHg 84%
    09:00 +9°C° 0 mm 1 mps 727 mmHg 83%
    10:00 +10°C° 0 mm 1 mps 727 mmHg 75%
    11:00 +10°C° 0 mm 2 mps 728 mmHg 67%
    12:00 +13°C° 0 mm 2 mps 728 mmHg 60%
    13:00 +13°C° 0 mm 2 mps 727 mmHg 57%
    14:00 +13°C° 0 mm 3 mps 727 mmHg 55%
    15:00 +13°C° 0 mm 3 mps 727 mmHg 52%
    16:00 +12°C° 0 mm 2 mps 727 mmHg 60%
    17:00 +10°C° 0 mm 1 mps 727 mmHg 69%
    18:00 +8°C° 0 mm 1 mps 727 mmHg 77%
    19:00 +8°C° 0 mm 1 mps 727 mmHg 80%
    20:00 +7°C° 0 mm 1 mps 728 mmHg 83%
    21:00 +7°C° 0 mm 1 mps 728 mmHg 86%
    22:00 +7°C° 0 mm 1 mps 728 mmHg 87%
    23:00 +5°C° 0 mm 0 mps 728 mmHg 88%

    29 Enero, Miércoles

    Tiempo Temperatura Precipitaciones Viento Presión Humedad
    00:00 +5°C° 0 mm 0 mps 728 mmHg 89%
    01:00 +5°C° 0 mm 0 mps 728 mmHg 89%
    02:00 +5°C° 0 mm 0 mps 727 mmHg 90%
    03:00 +5°C° 0 mm 0 mps 727 mmHg 90%
    04:00 +6°C° 0 mm 0 mps 727 mmHg 89%
    05:00 +6°C° 0 mm 0 mps 727 mmHg 88%
    06:00 +6°C° 0 mm 0 mps 727 mmHg 87%
    07:00 +7°C° 0 mm 0 mps 727 mmHg 86%
    08:00 +7°C° 0 mm 0 mps 728 mmHg 85%
    09:00 +8°C° 0 mm 0 mps 728 mmHg 84%
    10:00 +10°C° 0 mm 1 mps 728 mmHg 81%
    11:00 +11°C° 0 mm 1 mps 728 mmHg 77%
    12:00 +12°C° 0 mm 1 mps 728 mmHg 74%
    13:00 +12°C° 0 mm 1 mps 727 mmHg 76%
    14:00 +11°C° 0 mm 1 mps 727 mmHg 79%
    15:00 +11°C° 0 mm 1 mps 726 mmHg 81%
    16:00 +11°C° 0.2 mm 1 mps 726 mmHg 83%
    17:00 +10°C° 0.2 mm 1 mps 726 mmHg 86%
    18:00 +10°C° 0.2 mm 1 mps 726 mmHg 88%
    19:00 +10°C° 0 mm 1 mps 726 mmHg 87%
    20:00 +9°C° 0 mm 2 mps 726 mmHg 87%
    21:00 +9°C° 0 mm 2 mps 726 mmHg 86%
    22:00 +10°C° 0 mm 1 mps 726 mmHg 87%
    23:00 +10°C° 0 mm 1 mps 726 mmHg 87%

    30 Enero, Jueves

    Tiempo Temperatura Precipitaciones Viento Presión Humedad
    00:00 +10°C° 0 mm 1 mps 726 mmHg 87%
    01:00 +10°C° 0 mm 1 mps 726 mmHg 88%
    02:00 +10°C° 0 mm 1 mps 725 mmHg 89%
    03:00 +10°C° 0 mm 1 mps 725 mmHg 90%
    04:00 +10°C° 0.1 mm 1 mps 725 mmHg 90%
    05:00 +10°C° 0.1 mm 1 mps 725 mmHg 91%
    06:00 +10°C° 0.1 mm 1 mps 725 mmHg 91%
    07:00 +10°C° 0.3 mm 1 mps 725 mmHg 91%
    08:00 +11°C° 0.3 mm 1 mps 726 mmHg 90%
    09:00 +11°C° 0.3 mm 1 mps 726 mmHg 90%
    10:00 +12°C° 0.1 mm 1 mps 726 mmHg 87%
    11:00 +12°C° 0.1 mm 2 mps 726 mmHg 84%
    12:00 +13°C° 0.1 mm 2 mps 726 mmHg 80%
    13:00 +14°C° 0 mm 2 mps 726 mmHg 78%
    14:00 +14°C° 0 mm 2 mps 726 mmHg 76%
    15:00 +15°C° 0 mm 2 mps 726 mmHg 75%
    16:00 +14°C° 0 mm 2 mps 726 mmHg 79%
    17:00 +13°C° 0 mm 2 mps 726 mmHg 82%
    18:00 +12°C° 0 mm 1 mps 726 mmHg 86%
    19:00 +12°C° 0 mm 1 mps 726 mmHg 87%
    20:00 +12°C° 0 mm 1 mps 727 mmHg 87%
    21:00 +12°C° 0 mm 1 mps 727 mmHg 88%
    22:00 +12°C° 0 mm 1 mps 727 mmHg 88%
    23:00 +11°C° 0 mm 1 mps 727 mmHg 89%

    31 Enero, Viernes

    Tiempo Temperatura Precipitaciones Viento Presión Humedad
    00:00 +11°C° 0 mm 1 mps 727 mmHg 90%
    01:00 +11°C° 0 mm 1 mps 727 mmHg 90%
    02:00 +11°C° 0 mm 1 mps 727 mmHg 90%
    03:00 +10°C° 0 mm 1 mps 728 mmHg 91%
    04:00 +11°C° 0 mm 1 mps 727 mmHg 90%
    05:00 +11°C° 0 mm 1 mps 727 mmHg 90%
    06:00 +11°C° 0 mm 1 mps 727 mmHg 89%
    07:00 +11°C° 0 mm 1 mps 728 mmHg 88%
    08:00 +12°C° 0 mm 1 mps 728 mmHg 86%
    09:00 +12°C° 0 mm 1 mps 728 mmHg 84%
    10:00 +14°C° 0 mm 2 mps 728 mmHg 80%
    11:00 +15°C° 0 mm 2 mps 728 mmHg 75%
    12:00 +16°C° 0 mm 2 mps 728 mmHg 71%
    13:00 +16°C° 0 mm 2 mps 727 mmHg 73%
    14:00 +15°C° 0 mm 2 mps 727 mmHg 75%
    15:00 +15°C° 0 mm 2 mps 727 mmHg 78%
    16:00 +14°C° 0.4 mm 1 mps 727 mmHg 82%
    17:00 +14°C° 0.4 mm 1 mps 727 mmHg 87%
    18:00 +13°C° 0.4 mm 1 mps 727 mmHg 92%
    19:00 +13°C° 0.9 mm 1 mps 727 mmHg 93%
    20:00 +12°C° 0.9 mm 0 mps 728 mmHg 94%
    21:00 +12°C° 0.9 mm 0 mps 728 mmHg 96%
    22:00 +12°C° 0.4 mm 0 mps 728 mmHg 96%
    23:00 +12°C° 0.4 mm 0 mps 729 mmHg 95%
    Mostrar más